Regional Weather Roundup
Issued by NWS Midland/Odessa, TX

Home | Current Version | Previous Version | Text Only | Print | Product List | Glossary On
Versions: 1 2 3 4 5 6 7 8 9 10 11 12 13 14 15 16 17 18 19 20 21 22 23 24 25 26 27 28 29 30 31 32 33 34 35 36 37 38 39 40 41 42 43 44 45 46 47 48 49 50
000
ASUS44 KMAF 020410
RWRMAF
MIDLAND AREA WEATHER ROUNDUP
NATIONAL WEATHER SERVICE MIDLAND TX
1100 PM CDT WED APR 01 2015

...IN SOUTHWEST TEXAS AND SOUTHEAST NEW MEXICO...

CITY           SKY/WX    TMP DP  RH WIND       PRES   REMARKS
ALPINE         PTCLDY    61  36  39 W10       30.05R
ANDREWS        FAIR      70  36  28 SW10      29.86R
ARTESIA        CLEAR     66  32  28 SW14      29.86R
BIG SPRING     CLEAR     74  55  50 S16G22    29.86R
CARLSBAD       CLEAR     61  34  36 SW12      29.85R
DRYDEN           N/A     72  62  71 E7        29.87R
FORT STOCKTON  CLEAR     66  46  48 S8        29.89R
GUAD PASS      PTCLDY    64  32  30 W21       30.00R
HOBBS          CLEAR     63  32  31 SW8       29.87R
MARFA          CLEAR     54  36  50 NW7       30.04R
MIDLAND AIRPK  CLEAR     73  55  52 S16       29.86R
MIDLAND INTL   PTCLDY    72  54  53 S17       29.86R
ODESSA         PTCLDY    72  50  45 S16       29.87R
PECOS          CLEAR     62  39  42 SW8       29.85R
PRESIDIO       FAIR      69  45  41 N6        29.90R
SEMINOLE       CLEAR     66  34  31 SW10      29.85R
SNYDER         CLEAR     71  53  53 S17       29.83R
WINK           CLEAR     67  34  29 W9        29.83R
$$
...OTHER STATIONS IN TEXAS...

CITY           SKY/WX    TMP DP  RH WIND       PRES   REMARKS
ABILENE        CLEAR     72  57  59 S15G23    29.82R
AMARILLO       CLEAR     64  27  24 SW13      29.75R
AUSTIN         PTCLDY    70  66  87 S13       29.91R
BROWNSVILLE    CLOUDY    73  71  93 SE9       29.95R
CORPUS CHRISTI CLOUDY    71  69  93 SE16      29.93S
DALLAS FTW     PTCLDY    70  63  78 S17       29.84R
DEL RIO        CLEAR     72  63  73 SE6       29.87R
EL PASO        PTCLDY    75  33  21 W20       29.93R
HOUSTON INT    PTCLDY    70  66  87 S10       29.97F
LUBBOCK        CLOUDY    70  40  33 N6        29.81F
SAN ANGELO     CLEAR     72  56  57 S16G22    29.85R
SAN ANTONIO    CLOUDY    72  67  84 SE13      29.94R
WACO           CLEAR     68  64  87 S16       29.88R
WICHITA FALLS  NOT AVBL
$$
...OTHER LOCATIONS IN NEW MEXICO...

CITY           SKY/WX    TMP DP  RH WIND       PRES   REMARKS
ALAMAGORDO     CLEAR     63  28  27 S7        29.93R
ALBUQUERQUE    PTCLDY    62  21  20 W6        29.92R
CANNON AFB     PTCLDY    66  26  22 W13       29.84R
CLOVIS         CLEAR     54  28  37 SW12      29.84R
HOLLOMAN AFB   CLEAR     67  28  22 SW10      29.90R
ROSWELL        CLEAR     64  30  27 W12       29.84R
RUIDOSO        PTCLDY    57  23  26 SW12G17   30.04R
SANTA FE       PTCLDY    50  19  29 NE8       29.94S
TRUTH OR CONSE CLEAR     65  27  23 SW3       29.94R
TUCUMCARI      CLEAR     62  24  23 W10       29.79R
$$


USA.gov is the U.S. government's official web portal to all federal, state and local government web resources and services.